Home   Weather   Neuwied   Past weeks

Flag for Germany Past Weather in Neuwied, Rhineland-Palatinate, Germany — Yesterday and Last 2 Weeks

Now
46 °F

Drizzle. Fog.


Feels Like: 42 °F
Forecast: 48 / 51 °F
Wind: 9 mph from West

Location: Buechel

Current Time: Feb 21, 2017 at 6:46:29 am

Latest Report: Feb 21, 2017 at 5:20 am


Visibility: 2 mi

Pressure: 29.95 "Hg

Humidity: 100%

Dew Point: 46 °F

Location of NeuwiedLocation

Past Weather in Neuwied — Graph

°F

Neuwied Temperature Yesterday

Maximum temperature yesterday: 45 °F (at 8:20 pm)
Minimum temperature yesterday: 39 °F (at 12:20 am)
Average temperature yesterday: 41 °F

High & Low Weather Summary for the Past Weeks

 TemperatureHumidityPressure
High57 °F (Feb 15, 3:20 pm)100% (Feb 7, 8:57 am)30.51 "Hg (Feb 7, 8:57 am)
Low25 °F (Feb 9, 8:01 am)47% (Feb 15, 4:20 pm)29.83 "Hg (Feb 6, 4:20 am)
Average36 °F87%30.20 "Hg
* Reported Feb 6 4:20 am — Feb 21 4:20 am, Neuwied, Weather by CustomWeather, © 2017

Note: Actual official high and low records may vary slightly from our data, if they occured in-between our weather recording intervals... More about our weather records

Advertising

Neuwied Weather History for the Previous 24 Hours

Scroll right to see more
 ConditionsComfort  
Time TempWeatherWind HumidityBarometerVisibility
4:20 am
Tue, Feb 21
46 °FCool.9 mph100%29.95 "Hg2 mi
3:20 am46 °FCool.10 mph100%29.95 "Hg2 mi
2:20 am46 °FCool.12 mph100%29.98 "Hg0 mi
1:20 am45 °FQuite cool.13 mph100%29.98 "Hg1 mi
12:20 am45 °FQuite cool.13 mph100%30.01 "Hg0 mi
11:20 pm
Mon, Feb 20
45 °FQuite cool.14 mph100%30.01 "Hg0 mi
10:20 pm45 °FQuite cool.15 mph100%30.01 "Hg0 mi
9:20 pm45 °FQuite cool.14 mph100%30.01 "Hg1 mi
8:20 pm45 °FQuite cool.16 mph93%30.01 "Hg1 mi
7:20 pm43 °FQuite cool.16 mph100%30.01 "Hg1 mi
6:20 pm43 °FDrizzle. Fog.14 mph100%30.01 "Hg1 mi
5:20 pm43 °FDrizzle. Fog.16 mph100%30.01 "Hg1 mi
4:20 pm43 °FDrizzle. Fog.15 mph100%30.01 "Hg1 mi
3:20 pm43 °FDrizzle. Fog.15 mph100%30.04 "Hg1 mi
2:53 pm43 °FDrizzle. Fog.15 mph100%30.04 "Hg2 mi
2:20 pm43 °FDrizzle. Fog.15 mph93%30.04 "Hg1 mi
1:20 pm41 °FDrizzle. Fog.18 mph100%30.07 "Hg1 mi
12:20 pm41 °FDrizzle. Fog.16 mph100%30.09 "Hg1 mi
11:20 am41 °FDrizzle. Fog.15 mph100%30.09 "Hg1 mi
10:20 am41 °FDrizzle. Fog.14 mph100%30.09 "Hg1 mi
9:20 am41 °FDrizzle. Fog.10 mph93%30.12 "Hg1 mi
8:43 am39 °FDrizzle. Fog.12 mph100%30.12 "Hg1 mi
8:20 am39 °FDrizzle. Fog.12 mph100%30.12 "Hg1 mi
7:37 am39 °FDrizzle. Fog.10 mph100%30.09 "Hg1 mi
7:05 am39 °FDrizzle. Fog.12 mph100%30.12 "Hg2 mi
6:39 am39 °FDrizzle. Fog.10 mph100%30.12 "Hg1 mi
6:00 am39 °FDrizzle. Fog.9 mph93%30.12 "Hg1 mi
Weather by CustomWeather, © 2017

See weather overviewHow to use our weather pages